Year,Month,Day,Hour,Minute,Value (Times are PST for temperature in C)
2011,01,31,00,00,-2.40
2011,01,31,00,01,-2.30
2011,01,31,00,02,-2.40
2011,01,31,00,03,-2.30
2011,01,31,00,04,-2.30
2011,01,31,00,05,-2.40
2011,01,31,00,06,-2.40
2011,01,31,00,07,-2.40
2011,01,31,00,08,-2.40
2011,01,31,00,09,-2.40
2011,01,31,00,10,-2.40
2011,01,31,00,11,-2.40
2011,01,31,00,12,-2.40
2011,01,31,00,13,-2.40
2011,01,31,00,14,-2.40
2011,01,31,00,15,-2.40
2011,01,31,00,16,-2.40
2011,01,31,00,17,-2.40
2011,01,31,00,18,-2.40
2011,01,31,00,19,-2.40
2011,01,31,00,20,-2.40
2011,01,31,00,21,-2.40
2011,01,31,00,22,-2.40
2011,01,31,00,23,-2.40
2011,01,31,00,24,-2.40
2011,01,31,00,25,-2.40
2011,01,31,00,26,-2.40
2011,01,31,00,27,-2.50
2011,01,31,00,28,-2.50
2011,01,31,00,29,-2.50
2011,01,31,00,30,-2.50
2011,01,31,00,31,-2.50
2011,01,31,00,32,-2.50
2011,01,31,00,33,-2.50
2011,01,31,00,34,-2.50
2011,01,31,00,35,-2.50
2011,01,31,00,36,-2.50
2011,01,31,00,37,-2.50
2011,01,31,00,38,-2.50
2011,01,31,00,39,-2.50
2011,01,31,00,40,-2.40
2011,01,31,00,41,-2.40
2011,01,31,00,42,-2.40
2011,01,31,00,43,-2.40
2011,01,31,00,44,-2.40
2011,01,31,00,45,-2.40
2011,01,31,00,46,-2.40
2011,01,31,00,47,-2.40
2011,01,31,00,48,-2.40
2011,01,31,00,49,-2.40
2011,01,31,00,50,-2.40
2011,01,31,00,51,-2.40
2011,01,31,00,52,-2.40
2011,01,31,00,53,-2.40
2011,01,31,00,54,-2.40
2011,01,31,00,55,-2.40
2011,01,31,00,56,-2.40
2011,01,31,00,57,-2.40
2011,01,31,00,58,-2.40
2011,01,31,00,59,-2.40
2011,01,31,01,00,-2.50
2011,01,31,01,01,-2.40
2011,01,31,01,02,-2.40
2011,01,31,01,03,-2.40
2011,01,31,01,04,-2.50
2011,01,31,01,05,-2.40
2011,01,31,01,06,-2.50
2011,01,31,01,07,-2.50
2011,01,31,01,08,-2.50
2011,01,31,01,09,-2.50
2011,01,31,01,10,-2.50
2011,01,31,01,11,-2.50
2011,01,31,01,12,-2.50
2011,01,31,01,13,-2.50
2011,01,31,01,14,-2.50
2011,01,31,01,15,-2.50
2011,01,31,01,16,-2.40
2011,01,31,01,17,-2.40
2011,01,31,01,18,-2.40
2011,01,31,01,19,-2.40
2011,01,31,01,20,-2.40
2011,01,31,01,21,-2.40
2011,01,31,01,22,-2.40
2011,01,31,01,23,-2.40
2011,01,31,01,24,-2.40
2011,01,31,01,25,-2.40
2011,01,31,01,26,-2.40
2011,01,31,01,27,-2.40
2011,01,31,01,28,-2.40
2011,01,31,01,29,-2.40
2011,01,31,01,30,-2.40
2011,01,31,01,31,-2.40
2011,01,31,01,32,-2.40
2011,01,31,01,33,-2.40
2011,01,31,01,34,-2.40
2011,01,31,01,35,-2.40
2011,01,31,01,36,-2.40
2011,01,31,01,37,-2.40
2011,01,31,01,38,-2.40
2011,01,31,01,39,-2.40
2011,01,31,01,40,-2.40
2011,01,31,01,41,-2.40
2011,01,31,01,42,-2.40
2011,01,31,01,43,-2.40
2011,01,31,01,44,-2.40
2011,01,31,01,45,-2.40
2011,01,31,01,46,-2.40
2011,01,31,01,47,-2.40
2011,01,31,01,48,-2.40
2011,01,31,01,49,-2.40
2011,01,31,01,50,-2.40
2011,01,31,01,51,-2.40
2011,01,31,01,52,-2.40
2011,01,31,01,53,-2.40
2011,01,31,01,54,-2.40
2011,01,31,01,55,-2.40
2011,01,31,01,56,-2.40
2011,01,31,01,57,-2.40
2011,01,31,01,58,-2.40
2011,01,31,01,59,-2.50
2011,01,31,02,00,-2.50
2011,01,31,02,01,-2.50
2011,01,31,02,02,-2.50
2011,01,31,02,03,-2.50
2011,01,31,02,04,-2.40
2011,01,31,02,05,-2.40
2011,01,31,02,06,-2.40
2011,01,31,02,07,-2.40
2011,01,31,02,08,-2.40
2011,01,31,02,09,-2.40
2011,01,31,02,10,-2.40
2011,01,31,02,11,-2.40
2011,01,31,02,12,-2.40
2011,01,31,02,13,-2.40
2011,01,31,02,14,-2.40
2011,01,31,02,15,-2.40
2011,01,31,02,16,-2.40
2011,01,31,02,17,-2.40
2011,01,31,02,18,-2.40
2011,01,31,02,19,-2.40
2011,01,31,02,20,-2.40
2011,01,31,02,21,-2.40
2011,01,31,02,22,-2.40
2011,01,31,02,23,-2.40
2011,01,31,02,24,-2.40
2011,01,31,02,25,-2.40
2011,01,31,02,26,-2.40
2011,01,31,02,27,-2.40
2011,01,31,02,28,-2.40
2011,01,31,02,29,-2.40
2011,01,31,02,30,-2.40
2011,01,31,02,31,-2.40
2011,01,31,02,32,-2.40
2011,01,31,02,33,-2.40
2011,01,31,02,34,-2.40
2011,01,31,02,35,-2.40
2011,01,31,02,36,-2.40
2011,01,31,02,37,-2.40
2011,01,31,02,38,-2.40
2011,01,31,02,39,-2.40
2011,01,31,02,40,-2.40
2011,01,31,02,41,-2.40
2011,01,31,02,42,-2.40
2011,01,31,02,43,-2.40
2011,01,31,02,44,-2.40
2011,01,31,02,45,-2.40
2011,01,31,02,46,-2.40
2011,01,31,02,47,-2.40
2011,01,31,02,48,-2.40
2011,01,31,02,49,-2.40
2011,01,31,02,50,-2.40
2011,01,31,02,51,-2.40
2011,01,31,02,52,-2.40
2011,01,31,02,53,-2.40
2011,01,31,02,54,-2.40
2011,01,31,02,55,-2.40
2011,01,31,02,56,-2.40
2011,01,31,02,57,-2.40
2011,01,31,02,58,-2.40
2011,01,31,02,59,-2.40
2011,01,31,03,00,-2.40
2011,01,31,03,01,-2.40
2011,01,31,03,02,-2.40
2011,01,31,03,03,-2.40
2011,01,31,03,04,-2.40
2011,01,31,03,05,-2.40
2011,01,31,03,06,-2.40
2011,01,31,03,07,-2.40
2011,01,31,03,08,-2.40
2011,01,31,03,09,-2.40
2011,01,31,03,10,-2.40
2011,01,31,03,11,-2.40
2011,01,31,03,12,-2.40
2011,01,31,03,13,-2.40
2011,01,31,03,14,-2.40
2011,01,31,03,15,-2.40
2011,01,31,03,16,-2.40
2011,01,31,03,17,-2.40
2011,01,31,03,18,-2.40
2011,01,31,03,19,-2.40
2011,01,31,03,20,-2.40
2011,01,31,03,21,-2.40
2011,01,31,03,22,-2.40
2011,01,31,03,23,-2.40
2011,01,31,03,24,-2.30
2011,01,31,03,25,-2.30
2011,01,31,03,26,-2.30
2011,01,31,03,27,-2.30
2011,01,31,03,28,-2.30
2011,01,31,03,29,-2.30
2011,01,31,03,30,-2.30
2011,01,31,03,31,-2.30
2011,01,31,03,32,-2.30
2011,01,31,03,33,-2.30
2011,01,31,03,34,-2.30
2011,01,31,03,35,-2.30
2011,01,31,03,36,-2.30
2011,01,31,03,37,-2.30
2011,01,31,03,38,-2.30
2011,01,31,03,39,-2.30
2011,01,31,03,40,-2.30
2011,01,31,03,41,-2.30
2011,01,31,03,42,-2.40
2011,01,31,03,43,-2.40
2011,01,31,03,44,-2.40
2011,01,31,03,45,-2.40
2011,01,31,03,46,-2.40
2011,01,31,03,47,-2.40
2011,01,31,03,48,-2.40
2011,01,31,03,49,-2.40
2011,01,31,03,50,-2.40
2011,01,31,03,51,-2.40
2011,01,31,03,52,-2.40
2011,01,31,03,53,-2.40
2011,01,31,03,54,-2.40
2011,01,31,03,55,-2.40
2011,01,31,03,56,-2.40
2011,01,31,03,57,-2.40
2011,01,31,03,58,-2.40
2011,01,31,03,59,-2.40
2011,01,31,04,00,-2.40
2011,01,31,04,01,-2.40
2011,01,31,04,02,-2.40
2011,01,31,04,03,-2.40
2011,01,31,04,04,-2.40
2011,01,31,04,05,-2.40
2011,01,31,04,06,-2.40
2011,01,31,04,07,-2.40
2011,01,31,04,08,-2.40
2011,01,31,04,09,-2.40
2011,01,31,04,10,-2.40
2011,01,31,04,11,-2.40
2011,01,31,04,12,-2.40
2011,01,31,04,13,-2.40
2011,01,31,04,14,-2.40
2011,01,31,04,15,-2.40
2011,01,31,04,16,-2.40
2011,01,31,04,17,-2.40
2011,01,31,04,18,-2.40
2011,01,31,04,19,-2.40
2011,01,31,04,20,-2.40
2011,01,31,04,21,-2.40
2011,01,31,04,22,-2.40
2011,01,31,04,23,-2.40
2011,01,31,04,24,-2.40
2011,01,31,04,25,-2.40
2011,01,31,04,26,-2.40
2011,01,31,04,27,-2.40
2011,01,31,04,28,-2.40
2011,01,31,04,29,-2.40
2011,01,31,04,30,-2.40
2011,01,31,04,31,-2.40
2011,01,31,04,32,-2.40
2011,01,31,04,33,-2.40
2011,01,31,04,34,-2.40
2011,01,31,04,35,-2.40
2011,01,31,04,36,-2.30
2011,01,31,04,37,-2.30
2011,01,31,04,38,-2.30
2011,01,31,04,39,-2.30
2011,01,31,04,40,-2.30
2011,01,31,04,41,-2.30
2011,01,31,04,42,-2.30
2011,01,31,04,43,-2.30
2011,01,31,04,44,-2.30
2011,01,31,04,45,-2.30
2011,01,31,04,46,-2.30
2011,01,31,04,47,-2.30
2011,01,31,04,48,-2.30
2011,01,31,04,49,-2.30
2011,01,31,04,50,-2.30
2011,01,31,04,51,-2.30
2011,01,31,04,52,-2.30
2011,01,31,04,53,-2.30
2011,01,31,04,54,-2.30
2011,01,31,04,55,-2.30
2011,01,31,04,56,-2.30
2011,01,31,04,57,-2.30
2011,01,31,04,58,-2.30
2011,01,31,04,59,-2.20
2011,01,31,05,00,-2.30
2011,01,31,05,01,-2.30
2011,01,31,05,02,-2.30
2011,01,31,05,03,-2.30
2011,01,31,05,04,-2.30
2011,01,31,05,05,-2.30
2011,01,31,05,06,-2.30
2011,01,31,05,07,-2.30
2011,01,31,05,08,-2.30
2011,01,31,05,09,-2.30
2011,01,31,05,10,-2.30
2011,01,31,05,11,-2.30
2011,01,31,05,12,-2.30
2011,01,31,05,13,-2.30
2011,01,31,05,14,-2.30
2011,01,31,05,15,-2.30
2011,01,31,05,16,-2.30
2011,01,31,05,17,-2.30
2011,01,31,05,18,-2.30
2011,01,31,05,19,-2.30
2011,01,31,05,20,-2.20
2011,01,31,05,21,-2.20
2011,01,31,05,22,-2.20
2011,01,31,05,23,-2.20
2011,01,31,05,24,-2.20
2011,01,31,05,25,-2.20
2011,01,31,05,26,-2.20
2011,01,31,05,27,-2.20
2011,01,31,05,28,-2.20
2011,01,31,05,29,-2.20
2011,01,31,05,30,-2.20
2011,01,31,05,31,-2.20
2011,01,31,05,32,-2.20
2011,01,31,05,33,-2.20
2011,01,31,05,34,-2.20
2011,01,31,05,35,-2.20
2011,01,31,05,36,-2.20
2011,01,31,05,37,-2.20
2011,01,31,05,38,-2.20
2011,01,31,05,39,-2.20
2011,01,31,05,40,-2.20
2011,01,31,05,41,-2.20
2011,01,31,05,42,-2.20
2011,01,31,05,43,-2.20
2011,01,31,05,44,-2.20
2011,01,31,05,45,-2.20
2011,01,31,05,46,-2.20
2011,01,31,05,47,-2.20
2011,01,31,05,48,-2.20
2011,01,31,05,49,-2.20
2011,01,31,05,50,-2.20
2011,01,31,05,51,-2.20
2011,01,31,05,52,-2.20
2011,01,31,05,53,-2.20
2011,01,31,05,54,-2.20
2011,01,31,05,55,-2.20
2011,01,31,05,56,-2.20
2011,01,31,05,57,-2.20
2011,01,31,05,58,-2.20
2011,01,31,05,59,-2.20
2011,01,31,06,00,-2.20
2011,01,31,06,01,-2.20
2011,01,31,06,02,-2.20
2011,01,31,06,03,-2.20
2011,01,31,06,04,-2.20
2011,01,31,06,05,-2.20
2011,01,31,06,06,-2.20
2011,01,31,06,07,-2.20
2011,01,31,06,08,-2.20
2011,01,31,06,09,-2.20
2011,01,31,06,10,-2.20
2011,01,31,06,11,-2.20
2011,01,31,06,12,-2.20
2011,01,31,06,13,-2.20
2011,01,31,06,14,-2.20
2011,01,31,06,15,-2.20
2011,01,31,06,16,-2.20
2011,01,31,06,17,-2.20
2011,01,31,06,18,-2.20
2011,01,31,06,19,-2.20
2011,01,31,06,20,-2.20
2011,01,31,06,21,-2.20
2011,01,31,06,22,-2.20
2011,01,31,06,23,-2.20
2011,01,31,06,24,-2.20
2011,01,31,06,25,-2.20
2011,01,31,06,26,-2.20
2011,01,31,06,27,-2.20
2011,01,31,06,28,-2.20
2011,01,31,06,29,-2.20
2011,01,31,06,30,-2.20
2011,01,31,06,31,-2.20
2011,01,31,06,32,-2.20
2011,01,31,06,33,-2.20
2011,01,31,06,34,-2.20
2011,01,31,06,35,-2.20
2011,01,31,06,36,-2.20
2011,01,31,06,37,-2.20
2011,01,31,06,38,-2.20
2011,01,31,06,39,-2.20
2011,01,31,06,40,-2.20
2011,01,31,06,41,-2.20
2011,01,31,06,42,-2.20
2011,01,31,06,43,-2.20
2011,01,31,06,44,-2.20
2011,01,31,06,45,-2.20
2011,01,31,06,46,-2.20
2011,01,31,06,47,-2.20
2011,01,31,06,48,-2.20
2011,01,31,06,49,-2.20
2011,01,31,06,50,-2.20
2011,01,31,06,51,-2.20
2011,01,31,06,52,-2.20
2011,01,31,06,53,-2.10
2011,01,31,06,54,-2.10
2011,01,31,06,55,-2.20
2011,01,31,06,56,-2.20
2011,01,31,06,57,-2.20
2011,01,31,06,58,-2.20
2011,01,31,06,59,-2.20
2011,01,31,07,00,-2.20
2011,01,31,07,01,-2.20
2011,01,31,07,02,-2.20
2011,01,31,07,03,-2.20
2011,01,31,07,04,-2.20
2011,01,31,07,05,-2.20
2011,01,31,07,06,-2.20
2011,01,31,07,07,-2.20
2011,01,31,07,08,-2.20
2011,01,31,07,09,-2.20
2011,01,31,07,10,-2.20
2011,01,31,07,11,-2.20
2011,01,31,07,12,-2.20
2011,01,31,07,13,-2.20
2011,01,31,07,14,-2.20
2011,01,31,07,15,-2.20
2011,01,31,07,16,-2.20
2011,01,31,07,17,-2.20
2011,01,31,07,18,-2.20
2011,01,31,07,19,-2.20
2011,01,31,07,20,-2.20
2011,01,31,07,21,-2.20
2011,01,31,07,22,-2.20
2011,01,31,07,23,-2.20
2011,01,31,07,24,-2.20
2011,01,31,07,25,-2.20
2011,01,31,07,26,-2.20
2011,01,31,07,27,-2.20
2011,01,31,07,28,-2.20
2011,01,31,07,29,-2.20
2011,01,31,07,30,-2.20
2011,01,31,07,31,-2.20
2011,01,31,07,32,-2.20
2011,01,31,07,33,-2.20
2011,01,31,07,34,-2.20
2011,01,31,07,35,-2.20
2011,01,31,07,36,-2.20
2011,01,31,07,37,-2.20
2011,01,31,07,38,-2.20
2011,01,31,07,39,-2.20
2011,01,31,07,40,-2.20
2011,01,31,07,41,-2.20
2011,01,31,07,42,-2.20
2011,01,31,07,43,-2.20
2011,01,31,07,44,-2.20
2011,01,31,07,45,-2.20
2011,01,31,07,46,-2.20
2011,01,31,07,47,-2.20
2011,01,31,07,48,-2.20
2011,01,31,07,49,-2.20
2011,01,31,07,50,-2.20
2011,01,31,07,51,-2.20
2011,01,31,07,52,-2.10
2011,01,31,07,53,-2.10
2011,01,31,07,54,-2.10
2011,01,31,07,55,-2.10
2011,01,31,07,56,-2.10
2011,01,31,07,57,-2.10
2011,01,31,07,58,-2.10
2011,01,31,07,59,-2.10
2011,01,31,08,00,-2.10
2011,01,31,08,01,-2.10
2011,01,31,08,02,-2.10
2011,01,31,08,03,-2.10
2011,01,31,08,04,-2.10
2011,01,31,08,05,-2.10
2011,01,31,08,06,-2.10
2011,01,31,08,07,-2.20
2011,01,31,08,08,-2.10
2011,01,31,08,09,-2.10
2011,01,31,08,10,-2.20
2011,01,31,08,11,-2.10
2011,01,31,08,12,-2.10
2011,01,31,08,13,-2.10
2011,01,31,08,14,-2.10
2011,01,31,08,15,-2.10
2011,01,31,08,16,-2.10
2011,01,31,08,17,-2.10
2011,01,31,08,18,-2.10
2011,01,31,08,19,-2.10
2011,01,31,08,20,-2.10
2011,01,31,08,21,-2.10
2011,01,31,08,22,-2.10
2011,01,31,08,23,-2.10
2011,01,31,08,24,-2.10
2011,01,31,08,25,-2.10
2011,01,31,08,26,-2.10
2011,01,31,08,27,-2.10
2011,01,31,08,28,-2.10
2011,01,31,08,29,-2.10
2011,01,31,08,30,-2.10
2011,01,31,08,31,-2.10
2011,01,31,08,32,-2.10
2011,01,31,08,33,-2.10
2011,01,31,08,34,-2.00
2011,01,31,08,35,-2.00
2011,01,31,08,36,-2.00
2011,01,31,08,37,-2.00
2011,01,31,08,38,-2.00
2011,01,31,08,39,-2.00
2011,01,31,08,40,-2.00
2011,01,31,08,41,-1.90
2011,01,31,08,42,-1.90
2011,01,31,08,43,-1.90
2011,01,31,08,44,-1.90
2011,01,31,08,45,-1.90
2011,01,31,08,46,-1.90
2011,01,31,08,47,-1.90
2011,01,31,08,48,-1.90
2011,01,31,08,49,-1.90
2011,01,31,08,50,-1.80
2011,01,31,08,51,-1.80
2011,01,31,08,52,-1.80
2011,01,31,08,53,-1.80
2011,01,31,08,54,-1.80
2011,01,31,08,55,-1.80
2011,01,31,08,56,-1.80
2011,01,31,08,57,-1.70
2011,01,31,08,58,-1.70
2011,01,31,08,59,-1.70
2011,01,31,09,00,-1.70
2011,01,31,09,01,-1.70
2011,01,31,09,02,-1.70
2011,01,31,09,03,-1.60
2011,01,31,09,04,-1.60
2011,01,31,09,05,-1.60
2011,01,31,09,06,-1.60
2011,01,31,09,07,-1.50
2011,01,31,09,08,-1.50
2011,01,31,09,09,-1.50
2011,01,31,09,10,-1.50
2011,01,31,09,11,-1.40
2011,01,31,09,12,-1.40
2011,01,31,09,13,-1.40
2011,01,31,09,14,-1.40
2011,01,31,09,15,-1.40
2011,01,31,09,16,-1.30
2011,01,31,09,17,-1.30
2011,01,31,09,18,-1.30
2011,01,31,09,19,-1.30
2011,01,31,09,20,-1.30
2011,01,31,09,21,-1.20
2011,01,31,09,22,-1.20
2011,01,31,09,23,-1.20
2011,01,31,09,24,-1.20
2011,01,31,09,25,-1.20
2011,01,31,09,26,-1.20
2011,01,31,09,27,-1.10
2011,01,31,09,28,-1.10
2011,01,31,09,29,-1.10
2011,01,31,09,30,-1.10
2011,01,31,09,31,-1.00
2011,01,31,09,32,-1.00
2011,01,31,09,33,-1.00
2011,01,31,09,34,-0.90
2011,01,31,09,35,-0.90
2011,01,31,09,36,-0.90
2011,01,31,09,37,-0.90
2011,01,31,09,38,-0.90
2011,01,31,09,39,-0.90
2011,01,31,09,40,-0.90
2011,01,31,09,41,-0.80
2011,01,31,09,42,-0.80
2011,01,31,09,43,-0.80
2011,01,31,09,44,-0.80
2011,01,31,09,45,-0.80
2011,01,31,09,46,-0.80
2011,01,31,09,47,-0.80
2011,01,31,09,48,-0.80
2011,01,31,09,49,-0.80
2011,01,31,09,50,-0.80
2011,01,31,09,51,-0.80
2011,01,31,09,52,-0.70
2011,01,31,09,53,-0.70
2011,01,31,09,54,-0.70
2011,01,31,09,55,-0.70
2011,01,31,09,56,-0.60
2011,01,31,09,57,-0.60
2011,01,31,09,58,-0.60
2011,01,31,09,59,-0.50
2011,01,31,10,00,-0.50
2011,01,31,10,01,-0.50
2011,01,31,10,02,-0.40
2011,01,31,10,03,-0.40
2011,01,31,10,04,-0.40
2011,01,31,10,05,-0.30
2011,01,31,10,06,-0.30
2011,01,31,10,07,-0.30
2011,01,31,10,08,-0.30
2011,01,31,10,09,-0.20
2011,01,31,10,10,-0.20
2011,01,31,10,11,-0.20
2011,01,31,10,12,-0.10
2011,01,31,10,13,-0.10
2011,01,31,10,14,-0.10
2011,01,31,10,15,0.00
2011,01,31,10,16,0.00
2011,01,31,10,17,0.10
2011,01,31,10,18,0.20
2011,01,31,10,19,0.20
2011,01,31,10,20,0.20
2011,01,31,10,21,0.30
2011,01,31,10,22,0.30
2011,01,31,10,23,0.40
2011,01,31,10,24,0.40
2011,01,31,10,25,0.50
2011,01,31,10,26,0.50
2011,01,31,10,27,0.60
2011,01,31,10,28,0.60
2011,01,31,10,29,0.60
2011,01,31,10,30,0.70
2011,01,31,10,31,0.70
2011,01,31,10,32,0.70
2011,01,31,10,33,0.70
2011,01,31,10,34,0.70
2011,01,31,10,35,0.80
2011,01,31,10,36,0.80
2011,01,31,10,37,0.80
2011,01,31,10,38,0.80
2011,01,31,10,39,0.90
2011,01,31,10,40,0.90
2011,01,31,10,41,1.00
2011,01,31,10,42,1.00
2011,01,31,10,43,1.00
2011,01,31,10,44,1.10
2011,01,31,10,45,1.20
2011,01,31,10,46,1.20
2011,01,31,10,47,1.30
2011,01,31,10,48,1.30
2011,01,31,10,49,1.30
2011,01,31,10,50,1.30
2011,01,31,10,51,1.30
2011,01,31,10,52,1.30
2011,01,31,10,53,1.40
2011,01,31,10,54,1.40
2011,01,31,10,55,1.50
2011,01,31,10,56,1.50
2011,01,31,10,57,1.50
2011,01,31,10,58,1.60
2011,01,31,10,59,1.60
2011,01,31,11,00,1.60
2011,01,31,11,01,1.70
2011,01,31,11,02,1.70
2011,01,31,11,03,1.70
2011,01,31,11,04,1.80
2011,01,31,11,05,1.80
2011,01,31,11,06,1.80
2011,01,31,11,07,1.80
2011,01,31,11,08,1.80
2011,01,31,11,09,1.80
2011,01,31,11,10,1.80
2011,01,31,11,11,1.80
2011,01,31,11,12,1.80
2011,01,31,11,13,1.80
2011,01,31,11,14,1.80
2011,01,31,11,15,1.80
2011,01,31,11,16,1.80
2011,01,31,11,17,1.80
2011,01,31,11,18,1.80
2011,01,31,11,19,1.80
2011,01,31,11,20,1.90
2011,01,31,11,21,1.90
2011,01,31,11,22,2.00
2011,01,31,11,23,2.10
2011,01,31,11,24,2.10
2011,01,31,11,25,2.20
2011,01,31,11,26,2.30
2011,01,31,11,27,2.40
2011,01,31,11,28,2.50
2011,01,31,11,29,2.50
2011,01,31,11,30,2.50
2011,01,31,11,31,2.50
2011,01,31,11,32,2.60
2011,01,31,11,33,2.60
2011,01,31,11,34,2.60
2011,01,31,11,35,2.70
2011,01,31,11,36,2.70
2011,01,31,11,37,2.80
2011,01,31,11,38,2.90
2011,01,31,11,39,2.90
2011,01,31,11,40,3.00
2011,01,31,11,41,3.00
2011,01,31,11,42,3.10
2011,01,31,11,43,3.10
2011,01,31,11,44,3.10
2011,01,31,11,45,3.10
2011,01,31,11,46,3.10
2011,01,31,11,47,3.10
2011,01,31,11,48,3.20
2011,01,31,11,49,3.20
2011,01,31,11,50,3.30
2011,01,31,11,51,3.30
2011,01,31,11,52,3.40
2011,01,31,11,53,3.50
2011,01,31,11,54,3.50
2011,01,31,11,55,3.60
2011,01,31,11,56,3.60
2011,01,31,11,57,3.50
2011,01,31,11,58,3.40
2011,01,31,11,59,3.40
2011,01,31,12,00,3.30
2011,01,31,12,01,3.30
2011,01,31,12,02,3.30
2011,01,31,12,03,3.30
2011,01,31,12,04,3.30
2011,01,31,12,05,3.20
2011,01,31,12,06,3.20
2011,01,31,12,07,3.10
2011,01,31,12,08,3.10
2011,01,31,12,09,3.10
2011,01,31,12,10,3.10
2011,01,31,12,11,3.10
2011,01,31,12,12,3.10
2011,01,31,12,13,3.10
2011,01,31,12,14,3.10
2011,01,31,12,15,3.10
2011,01,31,12,16,3.10
2011,01,31,12,17,3.10
2011,01,31,12,18,3.10
2011,01,31,12,19,3.10
2011,01,31,12,20,3.10
2011,01,31,12,21,3.20
2011,01,31,12,22,3.20
2011,01,31,12,23,3.20
2011,01,31,12,24,3.20
2011,01,31,12,25,3.20
2011,01,31,12,26,3.30
2011,01,31,12,27,3.30
2011,01,31,12,28,3.40
2011,01,31,12,29,3.40
2011,01,31,12,30,3.40
2011,01,31,12,31,3.50
2011,01,31,12,32,3.50
2011,01,31,12,33,3.60
2011,01,31,12,34,3.60
2011,01,31,12,35,3.60
2011,01,31,12,36,3.60
2011,01,31,12,37,3.70
2011,01,31,12,38,3.70
2011,01,31,12,39,3.70
2011,01,31,12,40,3.70
2011,01,31,12,41,3.70
2011,01,31,12,42,3.70
2011,01,31,12,43,3.70
2011,01,31,12,44,3.70
2011,01,31,12,45,3.60
2011,01,31,12,46,3.60
2011,01,31,12,47,3.60
2011,01,31,12,48,3.60
2011,01,31,12,49,3.60
2011,01,31,12,50,3.60
2011,01,31,12,51,3.60
2011,01,31,12,52,3.60
2011,01,31,12,53,3.60
2011,01,31,12,54,3.60
2011,01,31,12,55,3.60
2011,01,31,12,56,3.60
2011,01,31,12,57,3.70
2011,01,31,12,58,3.70
2011,01,31,12,59,3.70
2011,01,31,13,00,3.60
2011,01,31,13,01,3.50
2011,01,31,13,02,3.40
2011,01,31,13,03,3.40
2011,01,31,13,04,3.40
2011,01,31,13,05,3.50
2011,01,31,13,06,3.50
2011,01,31,13,07,3.60
2011,01,31,13,08,3.60
2011,01,31,13,09,3.70
2011,01,31,13,10,3.70
2011,01,31,13,11,3.70
2011,01,31,13,12,3.80
2011,01,31,13,13,3.80
2011,01,31,13,14,3.80
2011,01,31,13,15,3.90
2011,01,31,13,16,3.80
2011,01,31,13,17,3.80
2011,01,31,13,18,3.80
2011,01,31,13,19,3.80
2011,01,31,13,20,3.80
2011,01,31,13,21,3.80
2011,01,31,13,22,3.80
2011,01,31,13,23,3.80
2011,01,31,13,24,3.70
2011,01,31,13,25,3.70
2011,01,31,13,26,3.80
2011,01,31,13,27,3.80
2011,01,31,13,28,3.80
2011,01,31,13,29,3.80
2011,01,31,13,30,3.80
2011,01,31,13,31,3.80
2011,01,31,13,32,3.80
2011,01,31,13,33,3.80
2011,01,31,13,34,3.80
2011,01,31,13,35,3.80
2011,01,31,13,36,3.80
2011,01,31,13,37,3.90
2011,01,31,13,38,3.90
2011,01,31,13,39,3.90
2011,01,31,13,40,4.00
2011,01,31,13,41,4.00
2011,01,31,13,42,4.00
2011,01,31,13,43,4.00
2011,01,31,13,44,4.00
2011,01,31,13,45,4.00
2011,01,31,13,46,4.00
2011,01,31,13,47,4.00
2011,01,31,13,48,3.90
2011,01,31,13,49,3.90
2011,01,31,13,50,3.90
2011,01,31,13,51,3.80
2011,01,31,13,52,3.80
2011,01,31,13,53,3.80
2011,01,31,13,54,3.70
2011,01,31,13,55,3.70
2011,01,31,13,56,3.70
2011,01,31,13,57,3.60
2011,01,31,13,58,3.60
2011,01,31,13,59,3.60
2011,01,31,14,00,3.60
2011,01,31,14,01,3.60
2011,01,31,14,02,3.60
2011,01,31,14,03,3.70
2011,01,31,14,04,3.70
2011,01,31,14,05,3.80
2011,01,31,14,06,3.80
2011,01,31,14,07,3.80
2011,01,31,14,08,3.90
2011,01,31,14,09,3.90
2011,01,31,14,10,3.90
2011,01,31,14,11,3.90
2011,01,31,14,12,4.00
2011,01,31,14,13,4.10
2011,01,31,14,14,4.10
2011,01,31,14,15,4.20
2011,01,31,14,16,4.20
2011,01,31,14,17,4.20
2011,01,31,14,18,4.30
2011,01,31,14,19,4.30
2011,01,31,14,20,4.30
2011,01,31,14,21,4.30
2011,01,31,14,22,4.20
2011,01,31,14,23,4.10
2011,01,31,14,24,4.10
2011,01,31,14,25,4.00
2011,01,31,14,26,3.90
2011,01,31,14,27,3.90
2011,01,31,14,28,3.90
2011,01,31,14,29,3.90
2011,01,31,14,30,3.80
2011,01,31,14,31,3.80
2011,01,31,14,32,3.80
2011,01,31,14,33,3.80
2011,01,31,14,34,3.80
2011,01,31,14,35,3.70
2011,01,31,14,36,3.70
2011,01,31,14,37,3.70
2011,01,31,14,38,3.70
2011,01,31,14,39,3.70
2011,01,31,14,40,3.70
2011,01,31,14,41,3.70
2011,01,31,14,42,3.70
2011,01,31,14,43,3.70
2011,01,31,14,44,3.70
2011,01,31,14,45,3.70
2011,01,31,14,46,3.70
2011,01,31,14,47,3.70
2011,01,31,14,48,3.70
2011,01,31,14,49,3.60
2011,01,31,14,50,3.60
2011,01,31,14,51,3.70
2011,01,31,14,52,3.70
2011,01,31,14,53,3.70
2011,01,31,14,54,3.70
2011,01,31,14,55,3.70
2011,01,31,14,56,3.70
2011,01,31,14,57,3.60
2011,01,31,14,58,3.60
2011,01,31,14,59,3.70
2011,01,31,15,00,3.70
2011,01,31,15,01,3.70
2011,01,31,15,02,3.70
2011,01,31,15,03,3.70
2011,01,31,15,04,3.70
2011,01,31,15,05,3.70
2011,01,31,15,06,3.70
2011,01,31,15,07,3.70
2011,01,31,15,08,3.70
2011,01,31,15,09,3.60
2011,01,31,15,10,3.60
2011,01,31,15,11,3.50
2011,01,31,15,12,3.50
2011,01,31,15,13,3.50
2011,01,31,15,14,3.60
2011,01,31,15,15,3.60
2011,01,31,15,16,3.60
2011,01,31,15,17,3.60
2011,01,31,15,18,3.60
2011,01,31,15,19,3.70
2011,01,31,15,20,3.70
2011,01,31,15,21,3.70
2011,01,31,15,22,3.70
2011,01,31,15,23,3.70
2011,01,31,15,24,3.70
2011,01,31,15,25,3.70
2011,01,31,15,26,3.70
2011,01,31,15,27,3.70
2011,01,31,15,28,3.70
2011,01,31,15,29,3.70
2011,01,31,15,30,3.70
2011,01,31,15,31,3.70
2011,01,31,15,32,3.70
2011,01,31,15,33,3.70
2011,01,31,15,34,3.70
2011,01,31,15,35,3.70
2011,01,31,15,36,3.70
2011,01,31,15,37,3.70
2011,01,31,15,38,3.70
2011,01,31,15,39,3.70
2011,01,31,15,40,3.60
2011,01,31,15,41,3.60
2011,01,31,15,42,3.60
2011,01,31,15,43,3.60
2011,01,31,15,44,3.60
2011,01,31,15,45,3.60
2011,01,31,15,46,3.60
2011,01,31,15,47,3.60
2011,01,31,15,48,3.50
2011,01,31,15,49,3.50
2011,01,31,15,50,3.50
2011,01,31,15,51,3.40
2011,01,31,15,52,3.40
2011,01,31,15,53,3.40
2011,01,31,15,54,3.30
2011,01,31,15,57,3.20
2011,01,31,15,58,3.20
2011,01,31,15,59,3.20
2011,01,31,16,00,3.20
2011,01,31,16,01,3.10
2011,01,31,16,02,3.10
2011,01,31,16,03,3.10
2011,01,31,16,04,3.10
2011,01,31,16,05,3.10
2011,01,31,16,06,3.10
2011,01,31,16,07,3.00
2011,01,31,16,08,2.90
2011,01,31,16,09,2.90
2011,01,31,16,10,2.90
2011,01,31,16,11,2.90
2011,01,31,16,12,2.80
2011,01,31,16,13,2.80
2011,01,31,16,14,2.80
2011,01,31,16,15,2.80
2011,01,31,16,16,2.70
2011,01,31,16,17,2.70
2011,01,31,16,18,2.70
2011,01,31,16,19,2.70
2011,01,31,16,20,2.60
2011,01,31,16,21,2.60
2011,01,31,16,22,2.60
2011,01,31,16,23,2.60
2011,01,31,16,24,2.60
2011,01,31,16,25,2.70
2011,01,31,16,26,2.60
2011,01,31,16,27,2.60
2011,01,31,16,28,2.60
2011,01,31,16,29,2.60
2011,01,31,16,30,2.60
2011,01,31,16,31,2.50
2011,01,31,16,32,2.50
2011,01,31,16,33,2.50
2011,01,31,16,34,2.40
2011,01,31,16,35,2.40
2011,01,31,16,36,2.40
2011,01,31,16,37,2.30
2011,01,31,16,38,2.30
2011,01,31,16,39,2.20
2011,01,31,16,40,2.20
2011,01,31,16,41,2.10
2011,01,31,16,42,2.10
2011,01,31,16,43,2.00
2011,01,31,16,44,2.00
2011,01,31,16,45,1.90
2011,01,31,16,46,1.90
2011,01,31,16,47,1.90
2011,01,31,16,48,1.90
2011,01,31,16,49,1.80
2011,01,31,16,50,1.80
2011,01,31,16,51,1.80
2011,01,31,16,52,1.80
2011,01,31,16,53,1.80
2011,01,31,16,54,1.80
2011,01,31,16,55,1.80
2011,01,31,16,56,1.70
2011,01,31,16,57,1.70
2011,01,31,16,58,1.70
2011,01,31,16,59,1.70
2011,01,31,17,00,1.60
2011,01,31,17,01,1.60
2011,01,31,17,02,1.60
2011,01,31,17,03,1.50
2011,01,31,17,04,1.50
2011,01,31,17,05,1.40
2011,01,31,17,06,1.40
2011,01,31,17,07,1.40
2011,01,31,17,08,1.40
2011,01,31,17,09,1.30
2011,01,31,17,10,1.30
2011,01,31,17,11,1.30
2011,01,31,17,12,1.30
2011,01,31,17,13,1.30
2011,01,31,17,14,1.30
2011,01,31,17,15,1.30
2011,01,31,17,16,1.30
2011,01,31,17,17,1.30
2011,01,31,17,18,1.30
2011,01,31,17,19,1.20
2011,01,31,17,20,1.20
2011,01,31,17,21,1.20
2011,01,31,17,22,1.10
2011,01,31,17,23,1.10
2011,01,31,17,24,1.10
2011,01,31,17,25,1.10
2011,01,31,17,26,1.10
2011,01,31,17,27,1.00
2011,01,31,17,28,1.00
2011,01,31,17,29,1.00
2011,01,31,17,30,1.00
2011,01,31,17,31,1.00
2011,01,31,17,32,0.90
2011,01,31,17,33,0.90
2011,01,31,17,34,0.90
2011,01,31,17,35,0.90
2011,01,31,17,36,0.90
2011,01,31,17,37,0.90
2011,01,31,17,38,0.80
2011,01,31,17,39,0.80
2011,01,31,17,40,0.80